Orlando International, FL

4:52 PM EDT on April 20, 2018 (GMT -0400)
Orlando International

Weather History for KMCO - July, 2013

Change the Weather History Date:

Thursday, July 4, 2013

  Actual Average Record
Temperature  
Mean Temperature 82 °F 82 °F  
Max Temperature 92 °F 91 °F 98 °F (1936)
Min Temperature 71 °F 73 °F 65 °F (1975)
Degree Days  
Heating Degree Days 0 0  
Month to date heating degree days 0 0  
Since 1 June heating degree days 0 0  
Since 1 July heating degree days 0 0  
Cooling Degree Days 17 17  
Month to date cooling degree days 61 68  
Year to date cooling degree days 1442 1359  
Since 1 June cooling degree days 570 558  
Growing Degree Days 31 (Base 50)    
Moisture  
Dew Point 73 °F    
Average Humidity 76    
Maximum Humidity 100    
Minimum Humidity 52    
Precipitation  
Precipitation 0.84 in 0.24 in 1.38 in (1996)
Month to date precipitation 2.35 0.93  
Year to date precipitation 23.32 23.14  
Sea Level Pressure  
Sea Level Pressure 30.13 in    
Wind  
Wind Speed 7 mph (ESE)    
Max Wind Speed 29 mph    
Max Gust Speed 35 mph    
Visibility 8 miles    
Events Rain , Thunderstorm    
T = Trace of Precipitation, MM = Missing Value Source: NWS Daily Summary

Daily Weather History Graph

Daily Weather History Graph

Search for Another Location

Airport or City:

Astronomy

Jul. 04, 2013 Rise Set
Actual Time 6:32 AM EDT 8:26 PM EDT
Civil Twilight 6:06 AM EDT 8:53 PM EDT
Nautical Twilight 5:33 AM EDT 9:25 PM EDT
Astronomical Twilight 4:59 AM EDT 9:59 PM EDT
Moon 3:42 AM EDT (7/4) 5:34 PM EDT (7/4)
Length of Visible Light 14h 47m
Length of Day
13h 53m
Waning Crescent, 11% of the Moon is Illuminated
Jul 4
Waning Crescent
Jul 8
New
Jul 15
First Quarter
Jul 22
Full
Jul 29
Last Quarter

Hourly Weather History & Observations

Time (EDT) Temp. Heat Index Dew Point Humidity Pressure Visibility Wind Dir Wind Speed Gust Speed Precip Events Conditions
12:53 AM 73.9 °F - 73.0 °F 97% 30.15 in 10.0 mi ESE 5.8 mph - N/A   Scattered Clouds
1:53 AM 75.0 °F - 73.9 °F 96% 30.14 in 9.0 mi ESE 5.8 mph - N/A   Mostly Cloudy
2:53 AM 73.9 °F - 73.0 °F 97% 30.12 in 10.0 mi ESE 5.8 mph - 0.01 in   Scattered Clouds
3:53 AM 73.9 °F - 73.0 °F 97% 30.10 in 10.0 mi ESE 4.6 mph - N/A   Partly Cloudy
4:53 AM 73.9 °F - 73.0 °F 97% 30.11 in 10.0 mi South 3.5 mph - N/A   Scattered Clouds
5:53 AM 73.9 °F - 73.0 °F 97% 30.11 in 10.0 mi East 5.8 mph - N/A   Mostly Cloudy
6:53 AM 73.9 °F - 73.0 °F 97% 30.12 in 10.0 mi East 3.5 mph - N/A   Mostly Cloudy
7:53 AM 75.9 °F - 75.0 °F 97% 30.13 in 10.0 mi ESE 4.6 mph - N/A   Mostly Cloudy
8:53 AM 78.1 °F - 73.9 °F 87% 30.15 in 10.0 mi ESE 9.2 mph - N/A   Mostly Cloudy
9:53 AM 82.0 °F 89.4 °F 75.9 °F 82% 30.15 in 10.0 mi SE 12.7 mph - N/A   Mostly Cloudy
10:53 AM 86.0 °F 93.8 °F 73.9 °F 67% 30.15 in 10.0 mi SE 12.7 mph - N/A   Mostly Cloudy
11:53 AM 88.0 °F 95.6 °F 73.0 °F 61% 30.14 in 10.0 mi SE 12.7 mph 20.7 mph N/A   Mostly Cloudy
12:53 PM 89.1 °F 96.0 °F 72.0 °F 57% 30.14 in 10.0 mi SE 16.1 mph 21.9 mph N/A   Mostly Cloudy
1:53 PM 90.0 °F 96.9 °F 72.0 °F 55% 30.12 in 10.0 mi SE 16.1 mph 21.9 mph N/A   Mostly Cloudy
2:53 PM 91.0 °F 98.2 °F 72.0 °F 53% 30.11 in 10.0 mi SE 13.8 mph 25.3 mph N/A   Mostly Cloudy
3:53 PM 84.0 °F 90.2 °F 73.0 °F 69% 30.11 in 10.0 mi SSE 6.9 mph - 0.00 in   Mostly Cloudy
4:53 PM 81.0 °F 87.9 °F 77.0 °F 88% 30.11 in 10.0 mi SSE 8.1 mph - 0.04 in   Mostly Cloudy
5:53 PM 82.0 °F 87.4 °F 73.0 °F 74% 30.10 in 10.0 mi Calm Calm - N/A   Overcast
6:04 PM 82.4 °F 88.2 °F 73.4 °F 74% 30.12 in 2.0 mi East 10.4 mph - 0.00 in Rain Light Rain
6:07 PM 80.6 °F 85.4 °F 73.4 °F 79% 30.12 in 2.0 mi ESE 11.5 mph - 0.00 in Rain , Thunderstorm Light Thunderstorms and Rain
6:18 PM 75.2 °F - 71.6 °F 89% 30.13 in 1.2 mi South 27.6 mph 34.5 mph 0.10 in Rain , Thunderstorm Heavy Thunderstorms and Rain
6:23 PM 73.4 °F - 69.8 °F 88% 30.14 in 0.8 mi SSE 12.7 mph 34.5 mph 0.28 in Rain , Thunderstorm Heavy Thunderstorms and Rain
6:30 PM 71.6 °F - 69.8 °F 94% 30.15 in 2.0 mi SSE 4.6 mph 24.2 mph 0.46 in Rain , Thunderstorm Heavy Thunderstorms and Rain
6:39 PM 71.6 °F - 69.8 °F 94% 30.15 in 2.0 mi East 3.5 mph - 0.59 in Rain , Thunderstorm Heavy Thunderstorms and Rain
6:47 PM 71.6 °F - 69.8 °F 94% 30.14 in 4.0 mi Variable 3.5 mph - 0.70 in Rain , Thunderstorm Thunderstorms and Rain
6:53 PM 72.0 °F - 70.0 °F 93% 30.15 in 4.0 mi East 9.2 mph - 0.72 in Rain , Thunderstorm Thunderstorms and Rain
7:35 PM 75.2 °F - 73.4 °F 94% 30.14 in 10.0 mi Calm Calm - 0.07 in   Overcast
7:53 PM 75.9 °F - 73.9 °F 94% 30.15 in 10.0 mi North 3.5 mph - 0.07 in   Overcast
8:53 PM 77.0 °F - 75.0 °F 94% 30.15 in 10.0 mi Variable 3.5 mph - N/A   Overcast
9:53 PM 77.0 °F - 75.0 °F 94% 30.17 in 10.0 mi Calm Calm - N/A   Mostly Cloudy
10:53 PM 77.0 °F - 75.0 °F 94% 30.17 in 8.0 mi East 3.5 mph - N/A   Mostly Cloudy
11:53 PM 75.9 °F - 73.9 °F 94% 30.17 in 10.0 mi ESE 5.8 mph - N/A   Scattered Clouds